�������l�o���
Date,Time,MP-1(��Sv/h),MP-2(��Sv/h),MP-3(��Sv/h),MP-4(��Sv/h),MP-5(��Sv/h),MP-6(��Sv/h),MP-7(��Sv/h),MP-8(��Sv/h),����,����(m/s),���J
2014/02/17,00:00,2.4,4.3,4.2,4.1,4.2,2.3,2.5,2.8,�k��,7.1,��
2014/02/17,00:10,2.4,4.3,4.2,4.1,4.2,2.3,2.5,2.8,�k��,5.8,��
2014/02/17,00:20,2.4,4.3,4.2,4.1,4.2,2.3,2.5,2.8,�k��,5.8,��
2014/02/17,00:30,2.4,4.3,4.2,4.1,4.2,2.3,2.5,2.8,�k��,6.1,��
2014/02/17,00:40,2.4,4.3,4.2,4.1,4.2,2.3,2.5,2.8,�k��,5.1,��
2014/02/17,00:50,2.4,4.3,4.2,4.1,4.2,2.3,2.5,2.8,�k��,6.1,��
2014/02/17,01:00,2.4,4.3,4.2,4.1,4.2,2.3,2.5,2.8,�k��,6.5,��
2014/02/17,01:10,2.4,4.3,4.2,4.1,4.2,2.3,2.5,2.8,�k��,6.3,��
2014/02/17,01:20,2.4,4.3,4.2,4.1,4.2,2.3,2.5,2.8,�k��,7.1,��
2014/02/17,01:30,2.4,4.3,4.2,4.1,4.2,2.3,2.5,2.8,�k�k��,6.8,��
2014/02/17,01:40,2.4,4.3,4.2,4.1,4.2,2.3,2.5,2.8,�k�k��,6.5,��
2014/02/17,01:50,2.4,4.3,4.2,4.1,4.2,2.3,2.5,2.8,�k�k��,6.3,��
2014/02/17,02:00,2.4,4.3,4.2,4.1,4.2,2.3,2.5,2.8,�k�k��,5.4,��
2014/02/17,02:10,2.4,4.3,4.2,4.2,4.2,2.3,2.5,2.8,�k�k��,6.0,��
2014/02/17,02:20,2.4,4.3,4.2,4.2,4.2,2.3,2.5,2.8,�k�k��,5.7,��
2014/02/17,02:30,2.4,4.3,4.2,4.1,4.2,2.3,2.5,2.8,�k��,6.0,��
2014/02/17,02:40,2.4,4.3,4.2,4.1,4.2,2.3,2.5,2.8,�k�k��,5.4,��
2014/02/17,02:50,2.4,4.3,4.2,4.1,4.2,2.3,2.5,2.8,�k��,7.2,��
2014/02/17,03:00,2.4,4.3,4.2,4.1,4.2,2.3,2.5,2.8,�k��,7.2,��
2014/02/17,03:10,2.4,4.3,4.2,4.2,4.2,2.3,2.5,2.8,�k��,7.1,��
2014/02/17,03:20,2.4,4.3,4.2,4.2,4.2,2.3,2.5,2.8,�k��,9.4,��
2014/02/17,03:30,2.4,4.3,4.2,4.2,4.2,2.3,2.5,2.8,�k��,9.1,��
2014/02/17,03:40,2.4,4.3,4.2,4.2,4.2,2.3,2.5,2.8,�k��,8.5,��
2014/02/17,03:50,2.4,4.3,4.2,4.2,4.2,2.3,2.5,2.8,�k��,8.2,��
2014/02/17,04:00,2.4,4.3,4.2,4.2,4.2,2.3,2.5,2.8,�k��,9.1,��
2014/02/17,04:10,2.4,4.3,4.2,4.2,4.2,2.3,2.5,2.8,���k��,8.5,��
2014/02/17,04:20,2.4,4.3,4.2,4.2,4.2,2.3,2.5,2.8,���k��,9.3,��
2014/02/17,04:30,2.4,4.3,4.2,4.2,4.2,2.3,2.5,2.8,���k��,8.3,��
2014/02/17,04:40,2.4,4.3,4.3,4.2,4.2,2.3,2.5,2.8,���k��,8.6,��
2014/02/17,04:50,2.4,4.3,4.2,4.2,4.2,2.3,2.5,2.8,���k��,9.1,��
2014/02/17,05:00,2.4,4.3,4.3,4.2,4.2,2.3,2.5,2.8,���k��,10.4,��
2014/02/17,05:10,2.4,4.3,4.3,4.2,4.2,2.3,2.5,2.8,���k��,8.2,��
2014/02/17,05:20,2.4,4.3,4.3,4.2,4.2,2.3,2.5,2.8,���k��,9.3,��
2014/02/17,05:30,2.4,4.3,4.3,4.2,4.2,2.3,2.5,2.8,���k��,6.0,��
2014/02/17,05:40,2.4,4.3,4.3,4.2,4.2,2.3,2.5,2.8,��,3.7,��
2014/02/17,05:50,2.4,4.3,4.2,4.2,4.2,2.3,2.5,2.8,���k��,3.1,��
2014/02/17,06:00,2.4,4.3,4.3,4.2,4.2,2.3,2.5,2.8,���k��,3.0,��
2014/02/17,06:10,2.4,4.3,4.2,4.2,4.2,2.3,2.5,2.8,�k��,3.4,��
2014/02/17,06:20,2.4,4.3,4.3,4.2,4.2,2.3,2.5,2.8,���k��,4.3,��
2014/02/17,06:30,2.4,4.3,4.2,4.2,4.2,2.3,2.5,2.8,�k��,6.1,��
2014/02/17,06:40,2.4,4.3,4.3,4.2,4.2,2.3,2.5,2.8,���k��,7.1,��
2014/02/17,06:50,2.4,4.3,4.3,4.2,4.2,2.3,2.5,2.8,���k��,5.3,��
2014/02/17,07:00,2.4,4.3,4.3,4.2,4.2,2.3,2.5,2.8,���k��,4.8,��
2014/02/17,07:10,2.4,4.3,4.3,4.2,4.2,2.3,2.5,2.8,��,6.0,��
2014/02/17,07:20,2.4,4.3,4.3,4.2,4.2,2.3,2.5,2.8,�쐼,4.1,��
2014/02/17,07:30,2.4,4.3,4.2,4.2,4.2,2.3,2.5,2.8,�쐼,3.5,��
2014/02/17,07:40,2.4,4.3,4.2,4.2,4.2,2.3,2.5,2.8,�쐼,3.8,��
2014/02/17,07:50,2.4,4.3,4.3,4.2,4.2,2.3,2.5,2.8,�쐼,3.3,��
2014/02/17,08:00,2.4,4.3,4.3,4.2,4.2,2.3,2.5,2.8,�쐼,3.2,��
2014/02/17,08:10,2.4,4.3,4.3,4.2,4.2,2.3,2.5,2.8,��쐼,3.0,��
2014/02/17,08:20,2.4,4.3,4.3,4.2,4.2,2.3,2.5,2.8,��쐼,2.9,��
2014/02/17,08:30,2.4,4.3,4.3,4.2,4.2,2.3,2.5,2.8,��,2.9,��
2014/02/17,08:40,2.4,4.3,4.3,4.2,4.2,2.3,2.5,2.8,�쐼,2.6,��
2014/02/17,08:50,2.4,4.3,4.3,4.2,4.2,2.3,2.5,2.8,��쐼,3.2,��
2014/02/17,09:00,2.4,4.3,4.3,4.2,4.2,2.3,2.5,2.8,�쐼,2.9,��
2014/02/17,09:10,2.4,4.3,4.3,4.2,4.2,2.3,2.5,2.8,���쐼,3.2,��
2014/02/17,09:20,2.4,4.3,4.3,4.2,4.2,2.3,2.5,2.8,��,4.6,��
2014/02/17,09:30,2.4,4.3,4.3,4.2,4.2,2.3,2.5,2.8,��,4.5,��
2014/02/17,09:40,2.4,4.3,4.3,4.2,4.2,2.3,2.5,2.8,��,4.7,��
2014/02/17,09:50,2.4,4.3,4.3,4.2,4.2,2.3,2.5,2.8,���쐼,4.4,��
2014/02/17,10:00,2.4,4.3,4.3,4.2,4.2,2.3,2.5,2.8,��,3.3,��
2014/02/17,10:10,2.4,4.3,4.3,4.2,4.2,2.3,2.5,2.8,���쐼,3.5,��
2014/02/17,10:20,2.4,4.3,4.3,4.2,4.3,2.3,2.5,2.8,���k��,2.3,��
2014/02/17,10:30,2.4,4.3,4.3,4.2,4.3,2.3,2.5,2.8,���쐼,2.0,��
2014/02/17,10:40,2.4,4.3,4.3,4.2,4.3,2.3,2.5,2.8,-,CALM,��
2014/02/17,10:50,2.4,4.3,4.3,4.2,4.3,2.3,2.5,2.8,�k,2.0,��
2014/02/17,11:00,2.4,4.3,4.3,4.2,4.3,2.3,2.5,2.8,�k�k��,2.2,��
2014/02/17,11:10,2.4,4.3,4.3,4.2,4.3,2.3,2.5,2.8,�k��,4.4,��
2014/02/17,11:20,2.4,4.3,4.3,4.2,4.3,2.3,2.5,2.8,�k��,7.7,��
2014/02/17,11:30,2.4,4.3,4.3,4.2,4.3,2.3,2.5,2.8,�k��,6.0,��
2014/02/17,11:40,2.4,4.3,4.3,4.2,4.3,2.3,2.5,2.8,�k��,6.1,��
2014/02/17,11:50,2.4,4.3,4.3,4.2,4.3,2.3,2.5,2.8,�k�k��,6.9,��
2014/02/17,12:00,2.4,4.3,4.3,4.2,4.3,2.3,2.5,2.8,�k�k��,7.8,��
2014/02/17,12:10,2.4,4.3,4.3,4.2,4.3,2.3,2.5,2.8,�k�k��,8.2,��
2014/02/17,12:20,2.4,4.3,4.3,4.2,4.3,2.3,2.5,2.8,�k�k��,7.1,��
2014/02/17,12:30,2.4,4.3,4.3,4.2,4.3,2.3,2.5,2.8,�k�k��,9.0,��
2014/02/17,12:40,2.4,4.3,4.3,4.2,4.3,2.3,2.5,2.8,�k�k��,8.9,��
2014/02/17,12:50,2.4,4.3,4.3,4.2,4.3,2.3,2.5,2.8,�k�k��,8.6,��
2014/02/17,13:00,2.4,4.3,4.3,4.2,4.3,2.3,2.5,2.8,�k�k��,9.3,��
2014/02/17,13:10,2.4,4.3,4.3,4.2,4.3,2.3,2.6,2.8,�k�k��,8.8,��
2014/02/17,13:20,2.5,4.3,4.3,4.2,4.3,2.3,2.5,2.8,�k�k��,9.3,��
2014/02/17,13:30,2.4,4.3,4.3,4.2,4.3,2.3,2.6,2.8,�k�k��,8.5,��
2014/02/17,13:40,2.5,4.3,4.3,4.2,4.3,2.3,2.5,2.8,�k�k��,7.9,��
2014/02/17,13:50,2.5,4.3,4.4,4.2,4.3,2.3,2.5,2.8,�k�k��,7.1,��
2014/02/17,14:00,2.5,4.3,4.4,4.2,4.3,2.3,2.6,2.8,�k�k��,5.1,��
2014/02/17,14:10,2.5,4.3,4.4,4.2,4.3,2.3,2.6,2.8,�k�k��,7.4,��
2014/02/17,14:20,2.5,4.3,4.4,4.2,4.3,2.3,2.6,2.8,�k��,7.4,��
2014/02/17,14:30,2.5,4.3,4.4,4.2,4.3,2.3,2.6,2.8,�k��,10.1,��
2014/02/17,14:40,2.5,4.3,4.4,4.2,4.3,2.3,2.6,2.8,�k��,9.0,��
2014/02/17,14:50,2.5,4.3,4.4,4.2,4.3,2.2,2.5,2.8,�k�k��,8.3,��
2014/02/17,15:00,2.5,4.3,4.4,4.2,4.3,2.2,2.6,2.8,�k�k��,6.4,��
2014/02/17,15:10,2.5,4.3,4.4,4.2,4.3,2.2,2.6,2.8,�k�k��,7.5,��
2014/02/17,15:20,2.5,4.3,4.4,4.2,4.3,2.3,2.6,2.8,�k�k��,6.3,��
2014/02/17,15:30,2.5,4.3,4.4,4.2,4.3,2.3,2.6,2.8,�k�k��,6.9,��
2014/02/17,15:40,2.5,4.3,4.4,4.2,4.3,2.3,2.6,2.8,�k�k��,7.4,��
2014/02/17,15:50,2.5,4.3,4.4,4.2,4.3,2.3,2.6,2.8,�k�k��,8.3,��
2014/02/17,16:00,2.5,4.3,4.4,4.2,4.3,2.3,2.6,2.8,�k�k��,7.4,��
2014/02/17,16:10,2.5,4.3,4.4,4.2,4.4,2.3,2.6,2.8,�k�k��,8.0,��
2014/02/17,16:20,2.5,4.3,4.4,4.2,4.4,2.3,2.6,2.8,�k�k��,7.1,��
2014/02/17,16:30,2.5,4.3,4.4,4.3,4.4,2.3,2.6,2.8,�k�k��,8.2,��
2014/02/17,16:40,2.5,4.3,4.4,4.3,4.4,2.3,2.6,2.8,�k��,8.2,��
2014/02/17,16:50,2.5,4.3,4.4,4.3,4.4,2.3,2.6,2.8,�k�k��,7.7,��
2014/02/17,17:00,2.5,4.3,4.4,4.2,4.4,2.3,2.5,2.8,�k��,6.8,��
2014/02/17,17:10,2.5,4.3,4.4,4.2,4.3,2.3,2.6,2.8,�k��,6.5,��
2014/02/17,17:20,2.5,4.3,4.4,4.2,4.4,2.3,2.6,2.8,�k��,5.7,��
2014/02/17,17:30,2.5,4.3,4.4,4.2,4.4,2.3,2.6,2.8,�k��,5.5,��
2014/02/17,17:40,2.5,4.3,4.4,4.2,4.4,2.3,2.6,2.8,�k��,5.3,��
2014/02/17,17:50,2.5,4.3,4.4,4.3,4.4,2.3,2.5,2.8,�k��,7.9,��
2014/02/17,18:00,2.5,4.3,4.4,4.2,4.4,2.3,2.6,2.8,�k��,7.9,��
2014/02/17,18:10,2.5,4.3,4.4,4.2,4.4,2.3,2.6,2.8,�k��,6.7,��
2014/02/17,18:20,2.5,4.3,4.4,4.3,4.4,2.3,2.5,2.8,�k��,7.4,��
2014/02/17,18:30,2.5,4.3,4.4,4.3,4.4,2.3,2.5,2.8,�k��,5.8,��
2014/02/17,18:40,2.4,4.3,4.4,4.3,4.4,2.3,2.5,2.8,�k��,4.6,��
2014/02/17,18:50,2.4,4.3,4.4,4.2,4.4,2.3,2.5,2.8,�k��,5.2,��
2014/02/17,19:00,2.4,4.3,4.4,4.3,4.4,2.3,2.6,2.8,�k��,4.7,��
2014/02/17,19:10,2.4,4.3,4.4,4.2,4.4,2.3,2.6,2.8,�k��,3.8,��
2014/02/17,19:20,2.5,4.3,4.4,4.3,4.4,2.3,2.5,2.8,�k��,3.5,��
2014/02/17,19:30,2.4,4.3,4.4,4.3,4.4,2.3,2.5,2.8,�k��,4.7,��
2014/02/17,19:40,2.5,4.3,4.4,4.3,4.4,2.3,2.5,2.8,�k��,4.6,��
2014/02/17,19:50,2.5,4.3,4.4,4.3,4.4,2.3,2.5,2.8,�k��,5.3,��
2014/02/17,20:00,2.4,4.3,4.4,4.2,4.4,2.3,2.5,2.8,�k��,5.0,��
2014/02/17,20:10,2.5,4.3,4.4,4.2,4.4,2.3,2.5,2.8,�k��,5.1,��
2014/02/17,20:20,2.4,4.3,4.4,4.2,4.4,2.3,2.5,2.8,�k��,4.4,��
2014/02/17,20:30,2.5,4.3,4.4,4.2,4.4,2.3,2.5,2.8,���k��,3.8,��
2014/02/17,20:40,2.4,4.3,4.4,4.2,4.4,2.3,2.5,2.8,���k��,3.6,��
2014/02/17,20:50,2.4,4.3,4.4,4.2,4.4,2.3,2.5,2.8,��,3.0,��
2014/02/17,21:00,2.4,4.3,4.4,4.2,4.4,2.3,2.5,2.8,���쐼,2.3,��
2014/02/17,21:10,2.4,4.3,4.4,4.2,4.4,2.3,2.5,2.8,�쐼,2.0,��
2014/02/17,21:20,2.4,4.3,4.4,4.2,4.4,2.3,2.5,2.8,���쐼,2.3,��
2014/02/17,21:30,2.4,4.3,4.4,4.2,4.4,2.3,2.5,2.8,��,2.1,��
2014/02/17,21:40,2.4,4.3,4.4,4.2,4.4,2.3,2.5,2.8,��,1.8,��
2014/02/17,21:50,2.5,4.3,4.4,4.2,4.4,2.3,2.5,2.8,��,2.8,��
2014/02/17,22:00,2.5,4.3,4.4,4.2,4.4,2.3,2.5,2.8,��,4.5,��
2014/02/17,22:10,2.5,4.3,4.4,4.2,4.4,2.3,2.5,2.8,���쐼,5.6,��
2014/02/17,22:20,2.4,4.3,4.4,4.2,4.4,2.3,2.5,2.8,��,5.6,��
2014/02/17,22:30,2.5,4.3,4.4,4.3,4.4,2.3,2.5,2.8,���쐼,6.5,��
2014/02/17,22:40,2.4,4.3,4.4,4.3,4.4,2.3,2.5,2.8,���쐼,6.1,��
2014/02/17,22:50,2.5,4.3,4.4,4.3,4.4,2.3,2.5,2.8,��,6.3,��
2014/02/17,23:00,2.4,4.3,4.4,4.2,4.4,2.3,2.5,2.8,���쐼,6.6,��
2014/02/17,23:10,2.4,4.3,4.4,4.2,4.4,2.3,2.5,2.8,���쐼,7.2,��
2014/02/17,23:20,2.4,4.3,4.4,4.2,4.4,2.3,2.5,2.8,���쐼,8.6,��
2014/02/17,23:30,2.4,4.3,4.4,4.3,4.4,2.3,2.5,2.8,��,7.7,��
2014/02/17,23:40,2.5,4.3,4.4,4.3,4.4,2.3,2.5,2.8,��,6.6,��
2014/02/17,23:50,2.5,4.3,4.4,4.3,4.4,2.3,2.5,2.8,��,6.1,��
